Location: Fort Wayne
(41.1310°N, 85.1290°W)
Time: 06:08:28
(UTC-04:00)

Meteor 2-9 Rocket - Visible Passes

Search period start: 21 August 2017 00:00
Search period end: 31 August 2017 00:00
Orbit: 791 x 895 km, 81.3° (Epoch: 20 August)

Date Brightness Start Highest point End Pass type
(mag) Time Alt. Az. Time Alt. Az. Time Alt. Az.
21 Aug 6.3 01:23:39 18° WNW 01:23:39 18° WNW 01:27:27 10° NNW visible
21 Aug 4.9 23:27:37 44° NE 23:27:37 44° NE 23:31:48 10° NNE visible
22 Aug 6.2 01:09:27 21° WNW 01:09:27 21° WNW 01:13:33 10° NNW visible
22 Aug 4.9 23:13:25 41° ENE 23:13:25 41° ENE 23:17:36 10° NNE visible
23 Aug 6.1 00:55:15 23° WNW 00:55:15 23° WNW 00:59:37 10° NNW visible
23 Aug 4.9 22:59:11 38° ENE 22:59:11 38° ENE 23:03:23 10° NNE visible
24 Aug 5.9 00:41:01 26° WNW 00:41:01 26° WNW 00:45:39 10° NNW visible
24 Aug 5.0 22:44:55 35° ENE 22:44:55 35° ENE 22:49:08 10° NNE visible
25 Aug 5.8 00:26:45 29° WNW 00:26:48 29° WNW 00:31:40 10° NNW visible
25 Aug 5.1 22:30:37 32° ENE 22:30:37 32° ENE 22:34:54 10° NNE visible
26 Aug 5.6 00:12:26 32° WNW 00:12:38 33° WNW 00:17:39 10° N visible
26 Aug 5.2 22:16:15 29° E 22:16:15 29° E 22:20:37 10° NNE visible
26 Aug 5.4 23:58:05 36° W 23:58:28 37° WNW 00:03:38 10° N visible
27 Aug 5.2 22:01:52 26° E 22:01:52 26° E 22:06:18 10° NE visible
27 Aug 5.2 23:43:40 40° W 23:44:18 41° WNW 23:49:35 10° N visible
28 Aug 5.4 21:47:24 22° E 21:47:44 22° E 21:51:58 10° NE visible
28 Aug 5.0 23:29:13 43° WSW 23:30:09 47° WNW 23:35:31 10° N visible
29 Aug 5.5 21:32:51 19° E 21:33:41 20° E 21:37:35 10° NE visible
29 Aug 4.8 23:14:39 43° WSW 23:16:00 53° WNW 23:21:27 10° N visible
30 Aug 5.6 21:18:11 16° ESE 21:19:38 17° E 21:23:08 10° NE visible
30 Aug 4.6 23:00:00 40° SW 23:01:51 60° WNW 23:07:21 10° N visible
